User: anonymous   Login
Location: Festilli
(46.4000°N, 11.6667°E)
Time: 10:36:07
(UTC+00:00)
Language:

SL-4 R/B - Orbit

View from above orbital plane
View from above orbital plane
View from above satellite
View from above satellite

Ground track
Ground track

The orbit data is extracted from the following two-line orbital elements,

1 39679U 14021B   21132.38015500  .00000395  00000-0  36949-4 0  9995
2 39679  51.6176  20.4520 0170468   6.1931 354.1093 15.06939710388613
Epoch (UTC): 12 May 2021 09:07:25
Eccentricity: 0.0170468
inclination: 51.6176°
perigee height: 427 km
apogee height: 663 km
right ascension of ascending node: 20.4520°
argument of perigee: 6.1931°
revolutions per day: 15.06939710
mean anomaly at epoch: 354.1093°
orbit number at epoch: 38861

The dashed part of the orbit path shows where the satellite is in the earth's shadow,  

DLR